Tracking 33446 objects as of 10-Mar-2026
HD Live streaming from Space Station
objects crossing your sky now

STARLINK-35402

Track STARLINK-35402 now!
10-day predictions
STARLINK-35402 is classified as:


NORAD ID: 66079
Int'l Code: 2025-235X
Perigee: 481.6 km
Apogee: 483.1 km
Inclination: 53.2 °
Period: 94.1 minutes
Semi major axis: 6853 km
RCS: Unknown
Launch date: October 19, 2025
Source: United States (US)
Launch site: AIR FORCE EASTERN TEST RANGE (AFETR)
Your satellite tracking list
Your tracking list is empty




NASA's NSSDC Master Catalog

Two Line Element Set (TLE):
1 66079U 25235X   26068.75339078  .00021484  00000-0  73535-3 0  9994
2 66079  53.1595 244.7968 0001090  68.6108 291.5009 15.30201306 22930
Source of the keplerian elements: AFSPC